User: anonymous   Login
Location: Sebastopol
(38.4021°N, 122.8239°W)
Time: 12:12:48
(UTC+00:00)
Language:

Cosmos 2322 Rocket - Orbit

View from above orbital plane
View from above orbital plane
View from above satellite
View from above satellite

Ground track
Ground track

The orbit data is extracted from the following two-line orbital elements,

1 23705U 95058B   21023.06608554 -.00000169  00000-0 -62593-4 0  9993
2 23705  71.0231 148.1754 0010026  92.2588 267.9683 14.15148615303346
Epoch (UTC): 23 January 2021 01:35:09
Eccentricity: 0.0010026
inclination: 71.0231°
perigee height: 834 km
apogee height: 849 km
right ascension of ascending node: 148.1754°
argument of perigee: 92.2588°
revolutions per day: 14.15148615
mean anomaly at epoch: 267.9683°
orbit number at epoch: 30334

The dashed part of the orbit path shows where the satellite is in the earth's shadow,  

DLR